Weather History for Waukesha, WI

Change the Weather History Date:

Monday, December 10, 2012

  Actual Average Record
Temperature  
Mean Temperature 29 °F -  
Max Temperature 32 °F 33 °F 52 °F (1993)
Min Temperature 26 °F 18 °F -8 °F (1978)
Degree Days  
Heating Degree Days 36    
Moisture  
Dew Point 26 °F    
Average Humidity 89    
Maximum Humidity 100    
Minimum Humidity 74    
Precipitation  
Precipitation 0.00 in - - ()
Sea Level Pressure  
Sea Level Pressure 29.80 in    
Wind  
Wind Speed 9 mph (WNW)    
Max Wind Speed 14 mph    
Max Gust Speed 20 mph    
Visibility 9 miles    
Events      
Averages and records for this station are not official NWS values.
T = Trace of Precipitation, MM = Missing Value Source: NWS Daily Summary

Daily Weather History Graph

Daily Weather History Graph

Search for Another Location

Airport:

Trip Planner

Search our weather history database for the weather conditions in past years. The results will help you decide how hot, cold, wet, or windy it might be!

Date:

Astronomy

Dec. 10, 2012 Rise Set
Actual Time 7:13 AM CST 4:18 PM CST
Civil Twilight 6:41 AM CST 4:50 PM CST
Nautical Twilight 6:05 AM CST 5:26 PM CST
Astronomical Twilight 5:31 AM CST 6:00 PM CST
Moon 3:54 AM CST (12/10) 2:09 PM CST (12/10)
Length of Visible Light 10h 08m
Length of Day
9h 04m
Waning Crescent, 10% of the Moon is Illuminated
Dec 10
Waning Crescent
Dec 13
New
Dec 19
First Quarter
Dec 28
Full
Jan 4
Last Quarter

Hourly Weather History & Observations

Time (CST) Temp. Windchill Dew Point Humidity Pressure Visibility Wind Dir Wind Speed Gust Speed Precip Events Conditions
12:15 AM 32.0 °F 24.2 °F 32.0 °F 100% 29.67 in 7.0 mi WSW 9.2 mph - N/A   Overcast
12:35 AM 32.0 °F 24.2 °F 32.0 °F 100% 29.66 in 7.0 mi WSW 9.2 mph - N/A   Overcast
12:55 AM 32.0 °F 23.0 °F 32.0 °F 100% 29.67 in 5.0 mi West 11.5 mph - N/A   Overcast
1:15 AM 32.0 °F 22.1 °F 32.0 °F 100% 29.67 in 5.0 mi West 13.8 mph 19.6 mph N/A   Overcast
1:55 AM 32.0 °F 23.6 °F 32.0 °F 100% 29.67 in 5.0 mi West 10.4 mph - N/A   Overcast
2:15 AM 32.0 °F 24.8 °F 32.0 °F 100% 29.67 in 7.0 mi West 8.1 mph - N/A   Overcast
2:35 AM 32.0 °F 23.0 °F 32.0 °F 100% 29.67 in 10.0 mi West 11.5 mph - N/A   Overcast
2:55 AM 32.0 °F 23.0 °F 32.0 °F 100% 29.67 in 7.0 mi West 11.5 mph - N/A   Overcast
3:15 AM 32.0 °F 24.8 °F 32.0 °F 100% 29.67 in 7.0 mi West 8.1 mph 11.5 mph N/A   Overcast
3:55 AM 32.0 °F 23.6 °F 32.0 °F 100% 29.67 in 3.0 mi West 10.4 mph - N/A   Overcast
4:15 AM 32.0 °F 24.2 °F 32.0 °F 100% 29.67 in 5.0 mi West 9.2 mph - N/A   Overcast
4:35 AM 32.0 °F 24.8 °F 32.0 °F 100% 29.68 in 5.0 mi WNW 8.1 mph - N/A   Overcast
5:45 AM 30.2 °F 23.4 °F 30.2 °F 100% 29.71 in 10.0 mi NW 6.9 mph - N/A   Overcast
6:45 AM 30.2 °F 20.8 °F 28.4 °F 93% 29.72 in 10.0 mi NW 11.5 mph - N/A   Overcast
7:46 AM 28.4 °F 19.7 °F 26.6 °F 93% 29.74 in 7.0 mi NW 9.2 mph - N/A   Overcast
8:45 AM 28.4 °F 19.7 °F 26.6 °F 93% 29.78 in 7.0 mi NNW 9.2 mph - N/A   Overcast
9:30 AM 26.6 °F 16.2 °F 26.6 °F 100% 29.79 in 7.0 mi NW 11.5 mph - N/A   Overcast
10:45 AM 26.6 °F 18.2 °F 24.8 °F 93% 29.80 in 10.0 mi NW 8.1 mph - N/A   Mostly Cloudy
11:10 AM 28.4 °F 19.7 °F 24.8 °F 86% 29.79 in 10.0 mi NW 9.2 mph - N/A   Overcast
11:45 AM 28.4 °F 19.7 °F 24.8 °F 86% 29.80 in 10.0 mi WNW 9.2 mph - N/A   Overcast
12:45 PM 28.4 °F 18.5 °F 23.0 °F 80% 29.80 in 10.0 mi WNW 11.5 mph - N/A   Mostly Cloudy
1:45 PM 28.4 °F 18.5 °F 23.0 °F 80% 29.80 in 10.0 mi NNW 11.5 mph - N/A   Mostly Cloudy
2:45 PM 28.4 °F 19.7 °F 23.0 °F 80% 29.80 in 10.0 mi NNW 9.2 mph - N/A   Mostly Cloudy
3:45 PM 26.6 °F 16.8 °F 23.0 °F 86% 29.83 in 10.0 mi NNW 10.4 mph - N/A   Overcast
4:45 PM 26.6 °F 18.2 °F 21.2 °F 80% 29.86 in 10.0 mi North 8.1 mph - N/A   Overcast
5:45 PM 26.6 °F 21.2 °F 21.2 °F 80% 29.87 in 10.0 mi NW 4.6 mph - N/A   Overcast
6:45 PM 26.6 °F 22.6 °F 21.2 °F 80% 29.88 in 10.0 mi NW 3.5 mph - N/A   Overcast
7:45 PM 26.6 °F 22.6 °F 21.2 °F 80% 29.91 in 10.0 mi West 3.5 mph - N/A   Overcast
8:15 PM 28.4 °F - 21.2 °F 74% 29.91 in 10.0 mi Calm Calm - N/A   Overcast
8:35 PM 28.4 °F 24.6 °F 23.0 °F 80% 29.91 in 10.0 mi WNW 3.5 mph - N/A   Overcast
8:45 PM 26.6 °F 22.6 °F 21.2 °F 80% 29.91 in 10.0 mi West 3.5 mph - N/A   Overcast
8:55 PM 28.4 °F 22.2 °F 23.0 °F 80% 29.91 in 10.0 mi West 5.8 mph - N/A   Overcast
9:15 PM 28.4 °F 21.2 °F 24.8 °F 86% 29.91 in 10.0 mi West 6.9 mph - N/A   Overcast
9:35 PM 28.4 °F 22.2 °F 24.8 °F 86% 29.92 in 10.0 mi West 5.8 mph - N/A   Overcast
9:55 PM 28.4 °F 21.2 °F 23.0 °F 80% 29.92 in 10.0 mi West 6.9 mph - N/A   Overcast
10:15 PM 28.4 °F 22.2 °F 23.0 °F 80% 29.92 in 10.0 mi WNW 5.8 mph - N/A   Overcast
10:35 PM 28.4 °F 22.2 °F 24.8 °F 86% 29.93 in 10.0 mi WNW 5.8 mph - N/A   Overcast
10:55 PM 28.4 °F 24.6 °F 24.8 °F 86% 29.93 in 10.0 mi NNW 3.5 mph - N/A   Overcast
11:15 PM 28.4 °F 23.3 °F 24.8 °F 86% 29.93 in 10.0 mi WSW 4.6 mph - N/A   Overcast
11:55 PM 28.4 °F - 23.0 °F 80% 29.92 in 10.0 mi Calm Calm - N/A   Overcast